Content
SEND FEEDBACK

Daily
Averages
Monthly
Summary
United States of America

GRAY HAWK, KENTUCKY


Home > North America > United States > Kentucky
Elevation: 128 feet     Latitude: 37 24N     Longitude: 083 56W

WEATHER
 
SELECT A DAY
Number of Records: 200,686;   Date Range: 1/1/95 - 8/12/14
 
SHARE

PRINT THIS DATA

[ ← Previous Day ]
WEATHER ALMANAC - FEBRUARY 13, 2013
[ Next Day → ]
[ °C ]   °F
Weather ElementAverageHighLow
Temperature36.3 °F43 °F (2:53 am)30 °F (10:53 pm)
Dewpoint31 °F35.6 °F (11:20 am)26.1 °F (6:53 am)
Humidity82.4 %96 % (10:53 pm)53 % (6:53 am)
Barometer29.82 in29.99 in (11:53 pm)29.70 in (7:53 am)
Wind Speed5.5 mph15 mph (2:22 pm)
Wind Gust20.7 mph (2:22 pm)
Weather ElementAverage
Visibility8.4 mi
Wind DirectionSSE (172 °)

Weather ElementTotal
Precipitation0.19 in
Heating Degree Days28.5 (Base 65)
Averaged from 35 records on February 13, 2013
WEATHER CONDITIONS BREAKOUT
WIND DIRECTION BREAKOUT
WEATHER BY HOUR - FEBRUARY 13, 2013
[ °C ]   °F
Local TimeTemperatureDewpointHumidityBarometerVisibilityWind DirectionWind SpeedGust SpeedPrecipitationEventsConditions
1:53 AM42.1 °F28.0 °F58 %29.83 in10.0 miNE (40°)3.5 mphOvercast
2:53 AM43.0 °F28.0 °F56 %29.80 in10.0 miCalmOvercast
3:53 AM42.1 °F27.0 °F55 %29.78 in10.0 miNorth (10°)4.6 mphOvercast
4:53 AM42.1 °F28.0 °F58 %29.74 in10.0 miNorth (10°)4.6 mphOvercast
5:53 AM42.1 °F28.0 °F58 %29.74 in10.0 miNorth (10°)3.5 mph0.00 inRainLight Rain
6:53 AM42.1 °F26.1 °F53 %29.71 in10.0 miCalm0.00 inOvercast
7:53 AM39.0 °F28.0 °F65 %29.70 in10.0 miNNE (20°)9.2 mph0.00 inRainLight Rain
8:53 AM39.9 °F28.9 °F65 %29.73 in10.0 miNorth (360°)5.8 mph0.00 inRainLight Rain
9:53 AM37.0 °F32.0 °F82 %29.74 in8.0 miNorth (360°)9.2 mph0.01 inRainLight Rain
10:18 AM37.4 °F33.8 °F87 %29.73 in9.0 miNorth (350°)10.4 mph0.01 inRainLight Rain
10:45 AM35.6 °F33.8 °F93 %29.72 in6.0 miNorth (10°)9.2 mph0.02 inRainLight Rain
10:53 AM37.0 °F34.0 °F89 %29.72 in7.0 miNorth (10°)8.1 mph0.02 inRainLight Rain
11:20 AM37.4 °F35.6 °F93 %29.71 in9.0 miVariable3.5 mph0.00 inRainLight Rain
11:53 AM37.0 °F34.0 °F89 %29.73 in10.0 miNorth (10°)4.6 mph0.00 inOvercast
12:46 PM35.6 °F33.8 °F93 %29.74 in3.0 miNNW (330°)5.8 mph0.05 inRainLight Rain
12:53 PM36.0 °F34.0 °F93 %29.75 in4.0 miNNW (340°)5.8 mph0.05 inRainLight Rain
1:53 PM36.0 °F34.0 °F93 %29.78 in6.0 miNNW (330°)9.2 mph0.03 inRainLight Rain
2:22 PM35.6 °F33.8 °F93 %29.77 in10.0 miNNW (330°)15.0 mph20.7 mph0.00 inRainLight Rain
2:31 PM35.6 °F33.8 °F93 %29.77 in9.0 miNNW (340°)13.8 mph20.7 mph0.00 inOvercast
2:53 PM36.0 °F33.1 °F89 %29.80 in10.0 miNNW (330°)9.2 mph18.4 mph0.00 inOvercast
3:53 PM35.1 °F32.0 °F89 %29.83 in10.0 miNW (320°)9.2 mph0.00 inOvercast
4:53 PM36.0 °F32.0 °F86 %29.85 in10.0 miWNW (300°)6.9 mphOvercast
5:53 PM35.1 °F30.9 °F85 %29.87 in10.0 miWNW (300°)6.9 mphOvercast
6:53 PM34.0 °F30.0 °F85 %29.91 in10.0 miWest (280°)5.8 mphOvercast
7:12 PM35.6 °F30.2 °F81 %29.90 in10.0 miWest (270°)4.6 mphOvercast
7:53 PM35.1 °F32.0 °F89 %29.94 in10.0 miWest (260°)3.5 mphOvercast
8:08 PM35.6 °F32.0 °F87 %29.92 in10.0 miCalmOvercast
8:34 PM35.6 °F30.2 °F81 %29.92 in10.0 miWSW (240°)3.5 mphMostly Cloudy
8:53 PM34.0 °F30.9 °F89 %29.95 in10.0 miSW (230°)4.6 mphMostly Cloudy
9:06 PM33.8 °F30.2 °F87 %29.93 in10.0 miWSW (240°)3.5 mphScattered Clouds
9:53 PM33.1 °F30.9 °F92 %29.97 in10.0 miCalmClear
10:53 PM30.0 °F28.9 °F96 %29.97 in3.0 miCalmScattered Clouds
11:26 PM30.2 °F28.4 °F93 %29.96 in1.8 miCalmClear
11:37 PM30.2 °F28.4 °F93 %29.96 in3.0 miSouth (190°)4.6 mphClear
11:53 PM30.0 °F28.9 °F96 %29.99 in4.0 miSSW (200°)3.5 mphClear
Hourly data recorded from KLOZ, located miles away from Gray Hawk, Kentucky







STORIES FROM OUR PARTNERS